GFSFLT1_850_temp_210.txt.gz
Temp
13 14 14 14 14 14 15 15 14 15 14 15 14 14 14 14 14 14 13 13 13 13 13 12 12 13 12 11 10 10 10 10
13 12 12 13 12 12 13 13 14 14 14 13 14 14 14 14 14 14 14 13 13 13 13 12 12 12 11 12 11 9 10 9
12 12 12 12 12 12 12 12 13 14 13 13 13 13 13 13 13 13 13 14 13 13 13 13 12 12 11 10 11 10 10 9
12 12 11 11 13 14 13 12 12 14 15 12 13 13 13 13 13 13 13 13 13 13 13 13 12 12 11 12 12 10 10 8
12 12 11 11 12 13 13 14 14 14 14 13 12 13 13 13 12 12 14 13 12 12 12 12 12 12 11 11 11 11 10 9
11 11 11 11 11 12 12 12 13 13 13 14 12 11 13 12 11 11 11 12 13 12 12 12 11 11 12 11 11 10 10 10
11 11 11 11 10 11 12 12 12 12 12 12 13 13 12 12 13 11 11 10 10 12 11 11 11 11 11 11 11 10 10 9
11 10 10 10 9 9 10 11 10 11 11 12 12 12 11 10 10 11 12 10 10 11 11 10 11 11 11 10 10 10 10 8
10 10 9 9 9 9 10 10 9 9 9 10 10 10 10 10 10 9 8 8 9 9 9 9 10 10 10 10 9 10 9 9
9 9 9 9 9 9 8 7 7 7 7 7 8 9 9 9 10 9 9 10 10 10 9 9 8 8 9 9 8 8 8 8
9 9 9 8 8 8 8 7 8 8 7 6 6 8 9 9 9 9 9 9 9 9 8 8 8 8 8 8 7 8 7 7
9 9 8 8 8 8 8 8 8 8 7 7 8 8 8 8 8 8 8 9 9 9 6 6 7 6 6 6 6 6 6 6
8 8 8 8 8 8 7 7 7 8 7 6 7 7 7 7 8 8 8 8 7 7 7 5 5 5 4 5 5 5 6 6
8 8 7 7 7 7 7 7 6 6 6 5 6 5 4 6 7 7 7 6 6 6 4 4 4 4 4 3 3 4 5 5
8 8 7 7 6 6 6 6 6 5 5 5 4 3 5 5 5 5 5 5 4 4 4 3 2 2 3 2 2 1 3 3
8 7 7 6 6 6 6 6 5 5 5 4 2 3 4 4 4 4 3 3 4 4 3 1 0 0 0 0 0 -0 -0 2
7 6 6 6 5 5 5 5 4 4 4 4 4 3 3 4 3 2 2 3 3 2 1 -0 -1 -1 -2 -2 -1 -1 -1 -0
6 6 5 5 5 4 4 4 3 3 4 3 3 3 3 3 2 1 1 1 1 1 1 -1 -1 -2 -1 -1 -1 -1 -1 -1
6 5 5 5 4 5 4 3 2 2 3 3 2 2 2 2 1 1 1 1 1 0 -0 -1 -1 -1 -2 -2 -1 -2 -2 -2

GFSFLT1_850_temp_216.txt.gz
Temp
19 18 19 19 19 19 18 16 16 15 14 14 14 14 14 14 14 14 14 14 14 14 14 14 14 13 14 13 13 13 13 13
18 16 16 16 16 16 16 16 16 16 15 14 14 14 14 14 14 13 14 14 14 14 14 14 14 14 13 12 12 12 12 13
17 15 15 15 15 15 15 15 15 15 15 14 13 13 13 13 14 14 14 13 13 13 13 13 13 13 13 13 12 12 12 12
17 15 14 14 14 15 14 14 14 15 14 14 14 14 14 14 14 14 14 14 14 13 13 13 13 13 12 12 12 12 12 12
16 15 14 13 13 13 13 13 13 14 13 13 13 14 14 14 14 13 13 12 13 12 12 12 12 12 12 12 12 11 10 11
17 15 14 13 12 12 12 12 14 15 15 15 15 15 15 15 15 14 14 13 13 12 12 11 11 11 12 11 11 12 11 9
16 15 14 12 11 11 12 12 12 13 13 13 14 14 14 14 13 13 12 11 11 11 11 11 11 10 10 10 11 11 11 10
16 15 14 13 12 11 12 12 12 12 12 12 12 12 12 11 11 11 11 11 11 11 10 10 10 9 9 9 9 10 10 10
15 14 14 13 12 12 11 11 11 11 11 11 11 12 12 11 11 10 10 11 11 10 10 9 9 9 9 8 8 8 8 9
14 14 13 12 12 11 11 11 11 10 10 10 10 10 10 9 9 9 9 8 8 7 7 8 9 9 8 7 7 7 7 7
13 13 12 12 12 11 11 10 10 10 10 9 9 9 9 9 9 9 8 7 7 7 7 8 8 8 8 8 7 7 5 5
13 13 12 11 11 11 10 10 10 9 9 9 8 8 8 8 7 7 6 6 6 6 7 7 7 7 7 7 7 6 5 5
13 12 12 11 11 11 10 10 9 9 9 8 8 8 7 7 7 6 6 6 6 4 5 6 7 7 7 7 6 5 5 4
12 12 11 11 11 10 10 9 9 8 8 8 8 8 7 7 6 6 6 6 6 5 5 6 5 5 5 4 4 4 3 3
12 11 11 10 10 9 9 9 8 8 7 7 7 7 7 6 6 6 5 5 4 4 4 4 4 4 4 4 3 3 3 2
12 12 11 10 9 9 8 8 8 7 7 6 6 6 6 6 5 5 5 4 4 3 3 3 3 3 3 3 2 1 0 -1
12 11 10 9 9 8 8 7 7 7 6 5 5 5 5 5 5 4 3 3 3 3 2 2 2 2 1 1 -0 0 -1 -2
11 10 9 8 8 7 7 6 6 6 5 5 5 3 3 3 3 2 2 2 2 2 1 1 1 1 -0 -0 -0 -1 -2 -2
10 9 9 8 8 7 6 6 5 5 4 3 2 2 2 1 2 1 1 2 1 1 -0 -1 -0 -1 -1 -1 -2 -2 -2 -3

GFSFLT1_850_temp_219.txt.gz
Temp
21 20 19 19 20 19 19 18 17 17 16 15 15 15 15 15 15 15 16 15 15 15 15 14 14 14 15 14 14 14 14 14
20 21 19 18 17 18 19 19 16 16 15 15 14 14 14 14 14 15 15 15 15 14 14 14 14 14 14 14 14 13 13 13
19 19 19 17 16 16 15 15 15 15 15 15 14 14 13 13 14 14 14 14 14 14 14 14 14 13 13 13 13 13 13 12
17 17 17 16 15 15 15 14 14 15 14 14 14 13 13 14 14 14 14 14 14 13 13 13 13 13 13 13 13 13 12 12
16 16 15 15 14 14 14 14 14 14 13 14 13 13 13 12 13 12 12 12 13 13 13 12 12 12 12 13 12 12 12 12
15 15 15 14 14 13 13 14 14 13 13 13 13 13 13 13 13 13 12 13 13 13 12 12 12 11 11 11 11 11 11 11
15 14 14 13 13 13 13 13 14 14 14 14 15 15 15 15 15 14 14 12 11 11 10 11 11 11 10 10 10 10 10 10
15 14 13 13 13 13 12 12 13 14 14 14 14 14 14 13 12 11 11 11 11 10 10 10 9 9 9 9 9 8 9 9
15 14 14 13 12 12 11 12 12 12 13 13 13 13 12 12 12 11 10 10 10 10 10 9 9 8 8 8 8 8 8 8
15 14 13 12 12 12 12 11 11 11 11 12 12 12 11 11 11 10 10 10 8 8 7 7 8 8 8 8 7 7 7 7
14 14 13 12 12 12 11 11 11 10 10 10 10 10 10 10 10 9 9 8 7 7 7 7 7 7 7 7 7 7 7 7
14 13 13 12 12 11 11 10 10 10 10 10 9 9 9 9 8 8 7 8 7 7 7 7 8 8 7 7 7 7 7 6
13 13 12 12 11 11 10 10 10 9 9 9 8 8 8 7 7 7 7 6 6 5 5 6 6 6 6 6 6 6 5 5
13 12 12 11 11 11 10 10 9 9 9 8 8 7 7 7 7 7 6 6 6 5 5 5 4 5 5 4 4 4 4 4
12 12 11 11 11 10 10 9 9 8 8 7 7 7 7 6 6 6 6 5 5 5 5 5 4 4 4 4 4 3 4 4
12 11 11 11 10 10 9 9 8 7 7 7 7 7 6 5 5 5 4 4 5 5 4 4 3 3 3 3 3 3 3 3
12 11 11 10 9 9 8 8 7 7 7 6 6 6 6 5 5 4 3 3 3 3 2 2 2 2 2 2 2 1 1 1
12 11 10 9 9 8 7 7 7 6 6 6 6 5 5 4 2 1 1 1 1 1 1 1 1 1 1 1 1 0 -0 -0
12 11 9 9 8 8 7 7 7 6 6 6 5 4 2 2 1 1 1 1 0 -0 -0 -1 0 0 0 0 0 -1 -1 -1

GFSFLT1_850_temp_222.txt.gz
Temp
22 22 21 20 20 21 20 20 19 17 16 16 16 16 16 16 15 15 15 15 15 15 14 14 14 14 14 14 14 13 13 14
21 22 22 21 20 20 19 19 18 17 16 16 16 16 16 16 15 15 15 15 15 15 15 14 14 14 14 14 13 13 13 13
20 21 20 20 20 19 18 18 17 16 16 15 15 15 15 15 15 14 14 14 14 14 14 14 14 14 14 14 14 13 13 13
19 19 19 19 19 18 17 15 16 16 15 14 14 14 14 14 14 14 14 14 14 14 14 14 13 13 13 13 13 13 13 13
19 19 19 17 17 16 16 16 15 15 14 14 14 14 13 13 13 13 13 13 14 14 14 14 13 13 12 12 12 12 12 12
19 18 17 16 15 15 14 15 14 14 13 13 13 13 13 13 13 13 14 13 13 13 13 12 12 11 11 11 11 12 12 11
17 16 16 15 14 14 14 14 13 13 14 13 13 13 13 13 13 13 13 13 12 12 12 11 11 11 10 10 10 10 10 9
15 15 14 14 14 14 14 13 13 13 13 13 14 14 14 14 14 13 13 12 11 11 10 10 10 9 9 9 9 9 9 9
14 13 14 14 13 14 14 13 14 14 14 14 14 14 14 13 13 13 12 11 10 10 10 10 10 9 9 8 8 8 8 8
13 13 14 13 13 13 13 13 13 13 13 13 13 13 13 12 11 10 10 10 9 9 9 8 8 8 8 8 7 7 8 8
12 13 13 13 13 13 13 13 13 12 12 12 11 11 11 11 10 10 9 9 9 8 7 7 7 7 7 7 7 7 7 7
12 12 12 12 12 12 12 12 12 11 11 10 10 10 9 9 9 8 8 7 7 7 6 6 6 6 7 7 7 6 6 6
13 12 12 11 11 12 12 11 11 10 10 10 9 9 8 8 8 7 7 7 6 6 6 5 5 5 6 6 6 5 5 5
12 12 11 11 11 11 11 10 10 9 9 9 9 8 8 8 7 7 6 6 5 5 5 4 5 6 5 5 4 4 4 3
12 12 12 12 11 11 10 10 9 9 9 9 8 8 7 7 6 5 5 5 5 4 5 5 4 3 3 3 3 3 3 3
13 12 12 11 11 10 10 10 9 9 9 8 7 7 6 5 5 5 4 4 4 4 3 3 3 3 3 3 2 2 2 2
12 12 11 11 11 10 9 9 9 8 8 7 6 6 5 5 5 4 3 1 1 1 1 2 2 2 2 2 2 1 1 1
12 12 11 11 10 10 9 9 8 8 7 6 6 6 6 5 4 3 1 1 1 1 1 1 1 2 1 1 1 1 1 0
12 12 11 10 10 9 9 9 8 7 6 6 6 6 5 5 3 2 2 2 1 1 1 -0 -1 0 1 1 1 0 -0 -1

GFSFLT1_850_temp_225.txt.gz
Temp
22 22 23 23 23 22 21 21 20 19 17 16 16 16 16 16 16 16 15 15 15 15 15 15 14 14 14 14 13 13 13 14
20 21 22 23 23 23 21 20 20 18 17 16 16 16 16 16 16 16 16 15 15 15 15 15 14 15 15 14 13 13 13 13
19 20 21 22 22 21 20 19 20 19 17 17 16 16 15 15 15 15 15 15 15 15 14 14 14 14 14 14 14 13 13 13
18 19 20 21 21 22 21 20 19 19 18 15 15 15 15 14 15 15 14 14 14 14 14 13 13 13 13 13 13 12 12 13
17 18 19 20 21 21 21 19 17 16 15 15 15 15 15 15 14 14 14 14 14 14 14 13 13 13 12 12 12 12 12 11
18 18 19 19 19 20 19 18 16 15 15 15 15 14 14 14 13 13 13 13 13 13 14 14 14 13 12 12 11 10 10 10
16 16 17 17 17 17 18 16 15 15 15 14 14 14 13 13 13 13 13 13 14 14 13 13 12 12 11 11 10 10 10 10
15 15 15 15 15 16 15 15 15 14 14 13 13 13 13 14 14 14 14 14 14 13 12 11 11 11 10 10 9 9 9 9
16 15 14 14 13 13 14 14 14 13 13 13 13 13 13 14 14 13 13 13 12 12 11 11 10 10 10 9 9 8 8 8
15 15 14 13 13 13 13 13 13 12 13 13 13 13 13 13 12 12 12 11 11 11 10 10 9 9 9 8 8 8 8 8
13 13 13 13 13 13 13 13 13 13 13 13 13 12 12 11 11 11 11 10 10 9 9 8 8 7 7 7 7 8 8 7
12 12 12 13 13 13 13 13 13 13 13 13 12 12 11 11 10 10 9 9 8 8 7 7 7 6 6 7 6 6 6 6
10 10 12 12 12 12 13 13 13 13 13 12 12 11 11 10 9 9 8 8 7 6 5 5 5 5 5 6 6 6 5 5
9 11 12 12 12 12 12 11 12 12 11 11 10 10 9 9 8 8 7 6 5 5 5 4 4 5 5 5 5 4 3 3
10 12 12 12 12 12 12 11 11 11 10 10 9 9 8 8 7 7 6 5 5 4 4 4 5 5 4 4 3 3 3 3
10 11 12 12 12 12 11 10 10 10 10 9 9 8 8 7 7 6 6 5 4 3 4 4 3 3 3 3 3 2 2 2
10 10 11 12 12 11 10 10 10 9 9 9 8 7 7 7 7 6 4 4 4 1 0 1 2 2 2 2 1 2 2 1
10 11 12 11 11 11 10 10 9 9 9 8 8 7 7 6 5 4 2 1 1 1 0 -0 -1 -0 1 1 1 1 1 0
11 10 9 11 11 10 10 10 9 9 8 8 7 6 6 5 4 3 2 1 1 -0 -0 -1 -2 -1 0 1 1 0 -0 -1

GFSFLT1_850_temp_228.txt.gz
Temp
24 24 23 23 23 22 21 20 20 20 20 19 18 18 18 17 16 16 15 15 15 15 15 15 15 15 15 14 14 14 14 14
23 24 24 23 22 22 22 20 20 19 19 19 18 18 17 16 16 16 15 15 15 15 15 15 15 15 14 14 14 14 14 13
22 24 24 23 23 23 21 21 20 19 19 19 18 19 18 17 16 16 16 16 16 16 15 15 15 14 14 13 13 13 13 13
22 23 24 22 22 22 22 22 21 19 18 18 17 17 16 15 15 16 15 15 15 16 15 15 14 14 13 13 13 13 13 13
21 22 23 22 23 22 22 22 19 19 19 18 17 18 16 15 15 15 15 15 15 14 14 14 13 13 13 13 12 12 12 11
20 21 22 22 21 22 22 22 21 20 19 17 16 15 15 15 14 14 13 13 14 13 13 13 13 13 13 12 12 11 10 10
18 18 19 20 20 21 21 21 20 20 18 17 15 15 15 14 14 14 13 12 12 12 12 13 13 12 12 11 11 11 10 9
17 17 18 19 19 19 19 18 17 16 16 15 14 15 14 14 14 13 13 12 12 13 12 12 12 11 11 10 10 9 9 8
18 18 18 18 18 19 17 16 15 15 15 15 15 15 14 13 13 12 12 13 13 13 12 12 11 11 10 10 9 9 9 8
18 16 17 17 17 17 15 15 15 14 14 14 14 14 13 13 13 13 13 13 12 12 11 11 10 10 9 9 8 8 8 8
16 16 16 16 16 15 14 14 15 14 14 14 13 13 12 13 13 13 12 12 11 11 10 9 9 8 8 7 7 7 7 7
15 13 14 14 14 13 14 14 14 13 13 13 13 13 12 12 12 12 11 11 10 9 9 8 8 7 7 7 7 7 6 6
12 12 13 13 13 13 13 13 13 12 12 12 12 12 12 12 11 11 10 9 9 8 8 7 7 6 6 6 6 6 5 5
11 10 11 12 12 12 12 12 12 12 12 12 12 11 11 11 10 10 9 8 8 7 6 6 5 5 5 5 5 5 4 4
10 10 10 12 12 12 12 12 12 12 11 11 10 10 10 10 9 9 8 7 7 6 5 4 4 4 4 4 3 3 3 3
10 10 10 11 12 12 12 12 11 11 10 10 10 10 9 9 9 8 7 7 6 5 4 4 3 3 3 3 2 2 2 2
9 9 9 10 12 12 11 11 11 10 10 10 9 9 9 8 8 7 6 5 5 4 4 1 0 1 2 2 1 1 1 1
9 10 10 11 12 12 12 11 10 10 9 9 9 9 8 7 7 7 6 5 5 3 1 -0 -1 -1 1 1 1 1 0 -0
10 10 9 10 12 11 11 10 10 10 9 9 8 7 7 7 7 6 6 4 3 -0 -1 -1 -2 -1 1 0 0 0 -0 0

GFSFLT1_850_temp_231.txt.gz
Temp
23 23 22 22 21 21 20 20 20 19 19 19 18 19 18 18 17 17 16 16 16 15 15 15 15 15 15 15 14 14 14 15
23 23 23 22 21 20 21 20 20 19 19 19 19 20 19 18 18 16 16 15 15 15 15 15 15 15 15 15 14 14 14 14
23 23 23 23 23 22 21 21 20 20 20 20 19 20 19 18 17 16 15 15 15 15 16 15 15 15 15 15 15 14 14 14
22 23 23 23 23 23 22 22 21 20 20 19 19 18 18 17 16 16 15 16 16 16 16 16 15 14 14 14 14 14 13 13
22 23 23 23 24 23 23 22 21 20 19 19 18 19 18 17 17 16 16 16 16 15 15 14 14 14 13 13 13 13 12 12
23 23 24 24 23 24 23 22 21 20 20 19 19 18 17 17 17 16 16 15 15 15 14 14 13 13 13 13 12 12 12 12
22 22 21 22 22 22 21 21 20 20 20 19 19 17 17 17 16 15 14 14 14 13 13 13 13 13 13 12 12 12 11 11
21 21 22 22 21 21 21 20 20 20 19 19 18 17 16 16 15 14 14 14 12 12 12 12 12 12 12 11 11 10 10 9
20 22 22 23 21 20 20 20 20 19 18 17 16 15 14 14 14 14 12 13 12 12 12 12 12 11 11 10 10 9 9 9
20 21 22 21 21 20 19 19 18 17 16 16 15 14 14 14 14 13 13 12 12 12 11 11 11 10 10 9 9 8 8 8
19 20 20 20 19 18 18 18 17 15 15 15 14 14 14 13 13 13 12 12 12 12 11 11 10 10 9 9 8 8 8 8
19 18 17 17 17 16 17 17 15 14 14 14 14 13 13 12 12 12 12 12 12 11 11 10 9 9 8 8 7 7 7 7
17 17 17 16 15 15 15 15 14 14 14 13 13 13 12 12 12 12 13 12 11 10 9 9 8 8 8 7 7 7 6 6
14 14 13 12 13 13 13 13 14 13 13 12 12 12 12 12 12 12 11 10 10 9 8 8 8 7 7 7 6 6 5 5
14 12 13 13 12 13 13 13 13 13 12 12 12 12 12 11 11 10 10 9 9 8 8 7 7 7 7 6 5 5 4 4
13 12 11 11 11 12 12 13 13 12 12 11 11 11 11 11 10 9 9 8 8 7 7 7 7 7 6 5 4 4 3 3
11 10 10 10 10 11 12 12 12 12 11 11 11 11 10 10 9 8 7 7 7 7 6 6 6 6 5 4 3 3 2 2
12 13 12 12 12 12 12 12 12 11 11 10 10 10 9 9 8 7 7 7 6 6 6 5 5 5 3 3 2 2 1 1
12 12 10 10 10 11 11 11 11 10 10 10 10 9 9 8 7 7 7 7 6 5 5 5 4 3 2 1 1 1 1 0